Temp
77 78 75 74 73 74 75 77 78 78 79 74 79 80 80 79 79 77 78 81 80 78 79 80 78 79 82 84 83 82 80 79 74 78 79 77 74 78 80 80 82 82 80
75 75 76 77 76 74 74 77 78 78 79 80 80 80 80 80 79 77 77 80 79 78 78 78 79 82 77 78 81 77 79 79 76 70 74 76 76 78 79 76 74 77 73
73 73 71 72 75 76 76 76 77 75 78 79 79 79 80 80 79 79 79 79 79 78 79 78 78 78 76 79 79 79 81 80 79 75 74 79 79 76 75 73 71 73 71
70 69 69 66 65 71 74 75 76 77 77 77 79 80 81 81 81 80 79 78 78 79 78 78 78 78 76 76 76 76 77 77 77 77 76 74 74 74 72 69 66 67 66
68 67 64 69 69 67 70 72 75 73 75 77 79 80 81 81 83 80 80 78 77 77 77 78 77 74 64 67 76 75 74 75 77 77 77 75 73 68 67 70 65 65 65
65 64 66 69 70 71 71 68 69 70 71 70 72 74 77 79 64 60 71 78 77 76 75 77 78 67 66 58 57 57 62 69 70 73 75 70 72 74 73 70 63 62 62
64 64 64 67 68 69 71 72 72 71 68 67 69 74 76 78 56 55 57 78 77 76 76 76 77 81 70 77 60 56 55 54 55 68 68 71 71 74 72 69 64 64 63
63 64 65 66 67 68 68 69 69 70 69 69 69 71 73 76 54 50 53 74 76 77 76 75 75 75 75 74 75 74 74 74 72 73 71 73 73 73 73 70 64 64 66
60 63 65 66 65 65 65 66 67 68 68 70 72 71 71 72 52 49 54 73 75 75 77 77 76 75 63 51 72 72 72 73 67 54 51 49 47 49 59 64 62 62 66
58 60 62 64 64 63 63 63 65 67 67 71 71 72 67 72 55 47 54 74 73 75 75 76 56 69 54 48 70 71 70 71 73 72 72 64 54 60 50 62 63 63 67
57 59 59 61 61 62 61 62 63 63 65 66 68 71 72 71 69 47 46 71 74 76 77 76 77 52 50 45 52 71 68 68 65 70 70 70 66 63 60 60 63 64 65
54 53 53 54 56 60 59 60 62 62 61 62 64 67 71 72 57 48 46 48 61 74 77 79 77 50 49 46 48 53 47 47 70 71 70 68 66 60 61 62 64 66 68
51 51 52 53 55 56 55 55 57 58 59 62 64 66 68 73 73 51 46 45 48 66 78 70 58 47 46 47 43 42 41 67 70 69 66 66 64 61 62 62 64 66 71
47 48 50 50 51 53 55 55 55 55 57 59 61 64 67 70 73 75 67 59 48 56 61 70 65 61 56 62 62 55 67 71 70 67 63 64 63 61 60 61 62 65 68
44 46 46 48 48 48 51 52 53 55 56 58 60 62 64 66 70 65 67 71 69 64 65 72 71 71 70 71 71 73 75 73 66 62 60 61 60 59 59 61 63 65 68
42 43 43 43 44 44 44 45 45 46 45 45 45 53 59 53 48 49 48 47 50 48 65 69 70 71 70 71 73 74 74 66 66 64 61 60 59 58 59 62 64 68 71
42 42 42 41 42 42 43 43 42 44 43 43 43 44 43 46 42 44 44 45 44 47 67 68 70 71 72 73 74 75 73 71 67 63 60 59 59 60 58 63 66 72 67
43 42 41 41 41 42 42 43 44 44 44 43 42 44 43 43 42 42 42 42 61 55 67 68 69 71 72 73 75 74 73 71 66 61 60 60 60 59 66 67 70 70 66
39 39 40 41 41 41 42 42 43 43 46 46 47 42 43 41 41 41 40 55 60 63 65 68 70 72 72 74 75 75 72 70 66 60 61 61 61 64 68 68 67 52 59
37 37 37 39 39 40 41 41 41 42 42 45 46 47 46 42 43 45 46 53 57 63 66 68 71 73 74 74 74 73 71 66 62 61 61 61 63 71 72 72 71 68 71
37 39 37 39 40 42 44 43 43 44 44 45 46 48 43 47 47 50 53 58 59 65 64 69 74 74 74 73 73 71 68 61 61 63 62 62 68 68 70 68 69 72 71
40 41 42 46 52 51 50 50 46 46 47 48 48 44 37 52 51 53 56 60 60 65 66 65 69 74 74 73 71 67 61 59 61 62 61 65 71 71 72 71 68 70 69
41 45 49 54 52 46 50 51 50 49 49 48 47 45 46 52 52 55 58 61 61 61 63 66 70 72 72 69 67 62 61 61 63 63 64 71 72 72 72 69 69 67 65
55 55 55 56 53 52 51 50 49 45 49 50 51 52 54 55 56 57 63 61 63 64 65 67 68 67 62 61 62 64 65 67 68 70 71 72 71 64 68 70 68 64 62
54 53 51 53 53 54 53 52 52 54 54 56 57 61 61 60 61 61 60 63 65 64 63 62 60 60 61 62 62 65 56 44 70 59 72 72 70 68 68 62 61 59 53
53 51 49 48 50 52 53 51 50 50 50 51 53 55 57 59 61 62 62 62 58 57 56 59 62 62 62 62 64 51 41 41 60 46 71 71 70 68 66 61 56 53 51
MSLP
1002.51 1002.10 1002.11 1002.17 1002.14 1001.99 1002.00 1001.85 1001.95 1001.79 1001.97 1002.61 1003.07 1004.64 1003.99 1004.59 1005.29 1005.76 1005.92 1005.63 1005.80 1006.22 1006.36 1006.17 1006.59 1006.92 1006.72 1006.45 1006.80 1007.24 1007.37 1007.59 1007.35 1007.27 1007.38 1007.31 1007.38 1006.93 1006.50 1006.71 1006.74 1006.75 1006.78
1002.74 1002.48 1001.99 1001.80 1001.83 1002.05 1002.20 1001.77 1001.40 1001.43 1001.88 1002.33 1002.77 1004.06 1003.93 1004.02 1004.86 1005.41 1005.52 1005.33 1005.61 1005.80 1005.95 1006.04 1006.05 1006.12 1006.63 1006.86 1006.55 1006.70 1006.77 1007.02 1007.35 1007.09 1006.86 1006.62 1006.51 1006.41 1006.33 1006.36 1006.66 1006.60 1006.73
1003.25 1002.57 1002.42 1002.30 1001.68 1001.43 1001.37 1001.52 1001.61 1002.14 1002.11 1002.43 1002.93 1003.28 1003.29 1003.76 1004.44 1004.79 1004.89 1004.96 1005.17 1005.44 1005.56 1005.67 1005.84 1006.02 1006.27 1006.30 1006.39 1006.31 1006.37 1006.46 1006.32 1006.29 1006.06 1005.89 1005.81 1006.04 1006.19 1006.11 1006.42 1006.44 1006.15
1003.51 1003.09 1002.59 1002.45 1002.33 1001.99 1001.29 1001.26 1001.06 1001.56 1002.01 1002.57 1002.63 1002.67 1002.73 1003.37 1003.89 1004.18 1004.41 1004.59 1004.81 1004.98 1005.29 1005.59 1005.69 1005.91 1006.37 1006.55 1006.58 1006.57 1006.44 1006.26 1005.88 1005.62 1005.45 1005.37 1005.46 1005.65 1006.13 1005.81 1006.14 1005.89 1005.73
1003.33 1002.93 1002.72 1001.83 1002.47 1002.09 1001.91 1001.53 1000.86 1001.16 1001.51 1002.08 1002.11 1002.15 1002.38 1002.57 1002.91 1003.40 1003.82 1004.18 1004.44 1004.74 1005.10 1005.40 1005.62 1005.99 1006.48 1006.61 1006.50 1006.25 1006.21 1006.06 1005.57 1005.09 1004.55 1004.80 1004.83 1005.46 1005.61 1005.30 1005.68 1005.59 1005.60
1003.12 1002.89 1002.61 1002.17 1001.86 1001.67 1001.31 1000.73 999.69 1000.02 1000.94 1001.41 1001.73 1002.36 1001.91 1001.91 1002.15 1002.80 1003.16 1003.47 1003.91 1004.28 1004.63 1004.94 1005.16 1005.84 1006.22 1006.48 1006.71 1006.78 1006.87 1006.85 1006.37 1005.71 1004.93 1004.89 1004.33 1004.35 1004.77 1004.96 1005.28 1005.41 1005.26
1002.61 1002.30 1001.85 1001.41 1001.31 1000.97 1000.45 1000.10 999.99 1000.20 1000.61 1000.52 1000.69 1001.36 1001.47 1001.19 1001.49 1002.17 1002.77 1002.63 1003.01 1003.51 1003.99 1004.36 1004.61 1004.60 1005.27 1005.49 1005.83 1006.17 1006.31 1006.42 1006.49 1006.30 1005.49 1004.55 1004.19 1003.92 1004.55 1004.81 1005.00 1004.89 1004.44
1002.02 1001.52 1001.23 1001.01 1000.76 1000.63 1000.24 1000.00 1000.03 1000.04 1000.14 1000.47 1000.77 1000.96 1000.86 1000.73 1000.93 1001.81 1002.25 1002.25 1002.22 1002.52 1003.00 1003.54 1003.98 1004.18 1004.43 1004.85 1005.04 1005.13 1005.19 1005.20 1005.34 1005.26 1004.99 1004.35 1004.29 1004.09 1004.35 1004.47 1004.68 1004.34 1004.09
1001.43 1000.52 1000.39 1000.29 1000.09 1000.03 999.85 999.78 999.72 999.84 999.79 999.71 999.62 999.82 999.90 1000.12 1000.55 1001.19 1002.04 1001.93 1001.75 1001.83 1002.11 1002.55 1003.07 1003.55 1003.79 1004.56 1004.88 1004.71 1004.57 1004.50 1004.53 1004.55 1004.60 1004.38 1004.26 1004.00 1004.36 1004.43 1004.19 1003.89 1003.36
1000.66 1000.16 999.97 999.62 999.25 999.17 999.17 999.09 999.14 999.08 998.86 998.81 998.57 998.63 998.80 999.05 999.75 1000.59 1001.24 1001.01 1000.93 1001.00 1001.32 1001.72 1002.45 1002.70 1003.13 1003.98 1004.28 1004.11 1003.96 1003.92 1003.93 1003.87 1003.89 1003.94 1003.90 1003.91 1004.22 1003.98 1003.98 1003.51 1003.11
999.67 999.31 999.15 998.75 998.40 998.37 998.53 998.50 998.47 998.34 998.01 997.72 997.67 997.62 997.72 997.94 998.49 999.82 1000.35 1000.25 999.84 999.89 1000.03 1000.42 1001.12 1002.17 1002.81 1003.67 1003.58 1003.50 1003.49 1003.67 1003.88 1003.64 1003.34 1003.11 1003.27 1003.48 1003.61 1003.41 1003.54 1003.34 1002.61
998.77 998.66 998.55 998.45 998.17 997.73 997.61 997.53 997.35 997.30 997.21 997.03 996.93 996.69 996.59 996.80 997.67 998.77 999.55 1000.01 999.20 999.25 998.70 999.06 999.29 1000.92 1001.84 1002.72 1003.52 1003.15 1003.40 1004.05 1003.47 1003.06 1002.75 1002.57 1002.61 1003.01 1002.73 1002.87 1002.85 1002.66 1001.99
997.87 997.63 997.46 997.27 997.15 997.03 996.81 996.67 996.55 996.55 996.34 995.94 995.72 995.47 995.26 995.30 996.15 997.27 998.45 999.08 999.46 999.45 998.17 998.37 998.99 1000.22 1001.05 1002.16 1002.65 1002.96 1003.48 1003.10 1002.60 1002.15 1002.10 1001.93 1002.07 1001.77 1002.17 1002.39 1002.32 1002.08 1001.35
997.03 996.69 996.50 996.26 996.04 995.90 995.78 995.57 995.43 995.36 995.25 995.06 994.74 994.35 994.27 994.40 994.81 995.59 997.06 997.94 999.13 999.29 998.86 998.52 998.94 999.51 1000.14 1000.51 1001.14 1002.29 1002.08 1001.46 1001.55 1001.66 1001.73 1001.44 1001.53 1001.58 1002.11 1001.94 1001.94 1001.30 1001.49
995.97 995.51 995.19 995.01 994.85 994.67 994.53 994.33 994.21 994.15 994.15 993.95 993.91 994.02 993.82 993.73 993.83 994.42 994.91 996.02 996.86 997.36 998.00 998.05 998.51 998.89 999.33 999.65 999.85 999.79 999.89 1000.08 1000.86 1001.14 1001.09 1000.97 1001.17 1001.40 1001.41 1001.35 1001.42 1001.36 1000.89
994.66 994.30 993.93 993.61 993.35 993.21 993.12 993.05 993.06 993.13 993.22 993.49 993.64 993.68 993.88 993.76 993.97 994.28 994.73 995.22 995.92 996.74 997.38 996.85 996.97 997.25 997.74 998.07 997.87 998.00 998.69 999.29 1000.18 1000.47 1000.43 1000.47 1000.57 1000.92 1001.07 1001.15 1001.10 1000.79 1000.35
993.28 992.85 992.54 992.29 991.99 991.78 991.60 991.46 991.33 991.49 991.87 992.42 992.74 993.15 993.59 993.83 993.98 994.53 994.71 995.19 995.85 996.61 996.15 995.88 995.87 996.03 996.40 996.74 996.66 996.79 997.77 998.34 999.41 999.75 999.84 1000.02 1000.38 1000.47 1000.66 1000.64 1000.59 1000.14 1000.22
991.94 991.34 991.11 990.72 990.36 990.20 990.00 989.63 989.71 989.88 990.05 990.60 991.47 992.10 992.72 993.29 993.74 994.16 994.71 995.01 995.35 995.60 995.23 994.93 994.78 994.95 995.39 995.61 995.69 996.11 996.87 997.65 998.53 999.19 999.33 999.45 999.63 999.79 999.82 999.64 999.55 999.61 1000.03
990.73 990.04 989.64 989.11 988.58 988.26 988.08 988.02 987.94 988.35 988.19 988.65 989.44 990.70 991.71 992.45 993.32 993.87 994.38 994.46 994.08 994.11 994.31 993.91 994.00 994.05 994.57 994.72 995.20 995.66 996.39 997.09 997.87 998.44 998.55 998.67 999.00 998.96 998.80 998.99 999.39 999.91 999.97
989.26 988.73 988.35 987.69 987.20 986.67 986.25 986.17 986.38 986.82 987.30 987.73 988.04 988.72 990.05 991.69 992.62 993.44 994.11 993.75 993.54 993.30 993.19 993.24 993.09 993.23 993.59 994.29 994.71 995.36 995.91 996.60 997.27 997.71 998.04 998.21 998.28 998.15 998.13 998.56 999.11 999.83 999.96
988.17 987.18 986.35 986.09 985.33 984.65 984.14 983.79 984.19 985.08 985.80 986.44 987.18 987.72 988.87 990.09 991.17 991.87 992.47 992.50 992.78 992.59 992.60 992.47 992.22 992.56 993.21 993.78 994.55 995.19 995.75 996.67 997.11 997.17 997.28 997.58 997.63 997.87 998.12 998.85 999.35 999.53 999.95
986.70 986.03 985.15 984.46 983.72 983.42 982.95 982.18 982.85 984.08 984.89 985.49 986.22 987.51 988.54 989.14 990.20 990.93 991.56 991.80 992.22 991.96 992.17 992.35 992.29 992.23 992.84 993.70 994.32 994.99 995.61 995.98 996.31 996.83 997.05 996.95 997.17 997.79 998.23 998.80 999.52 999.99 1000.49
985.28 984.56 984.21 983.95 983.89 983.69 983.47 983.40 983.57 984.06 984.68 985.49 986.39 987.49 988.47 988.63 989.51 990.22 990.75 991.13 991.61 991.86 992.34 992.57 992.41 992.25 992.93 993.70 994.27 994.83 995.10 995.58 995.99 996.51 996.55 996.71 997.26 997.86 998.35 999.04 999.64 1000.31 1000.98
984.55 984.34 984.16 984.03 984.23 984.23 984.29 984.35 984.68 985.02 985.43 985.95 986.61 987.34 987.58 988.25 989.09 989.98 990.34 990.92 991.23 991.31 991.66 992.05 992.45 992.75 993.44 993.82 994.12 994.37 994.71 995.02 995.55 995.94 996.31 996.72 997.39 998.16 998.77 999.29 999.97 1000.79 1001.78
985.27 985.19 985.08 985.01 984.97 984.86 985.03 985.14 985.30 985.51 985.85 986.13 986.55 986.96 987.36 988.00 988.54 989.22 989.97 990.36 990.71 991.08 991.69 992.37 992.65 992.84 992.65 993.19 993.67 993.97 994.21 994.66 994.81 995.53 996.19 996.55 997.30 998.38 999.18 1000.43 1001.30 1002.20 1003.25
986.19 986.31 986.30 986.39 986.34 986.26 986.13 986.31 986.65 986.85 987.01 987.22 987.50 987.73 988.11 988.63 989.05 989.56 990.15 990.71 991.26 991.54 991.70 991.66 991.49 991.74 992.35 993.11 993.41 994.01 994.68 995.01 995.34 995.68 996.17 997.09 997.94 998.95 1000.19 1001.27 1002.27 1003.16 1003.81
Wind_Speed
11 9 6 6 7 7 11 13 10 9 10 10 12 10 9 11 11 11 12 13 14 13 13 12 14 12 10 9 9 9 9 10 11 13 11 11 11 13 11 9 11 11 9
9 10 11 8 8 8 8 6 7 8 9 8 9 13 12 11 11 12 12 12 13 12 12 11 11 8 10 10 8 10 10 10 11 15 11 10 11 11 11 9 8 7 8
13 9 7 12 9 10 9 7 8 6 7 10 12 12 12 12 12 13 12 12 11 11 11 11 10 10 10 9 10 10 10 11 12 11 13 9 9 7 10 7 8 9 5
11 11 8 6 10 14 10 8 8 8 8 11 12 14 13 14 13 12 11 11 10 10 9 9 9 10 9 10 10 10 10 10 11 12 11 10 7 8 8 6 6 4 3
13 13 11 7 9 7 11 14 10 8 8 10 14 16 16 14 12 14 13 12 11 10 9 8 9 8 1 4 6 7 9 10 10 12 10 10 10 6 9 4 5 2 5
14 15 14 13 13 12 12 10 7 6 9 10 12 16 17 12 14 16 14 13 14 13 11 11 8 9 9 9 9 9 9 11 13 12 11 12 13 9 8 7 3 3 5
17 17 16 15 15 15 13 12 10 12 10 9 10 18 18 18 14 19 18 14 14 13 13 11 10 9 9 8 12 13 13 15 16 13 15 15 15 11 8 8 6 5 6
20 19 18 17 17 16 15 14 14 13 13 14 16 19 18 16 12 16 18 18 15 15 15 15 13 12 11 10 8 9 10 9 9 9 14 14 12 11 7 6 7 9 6
23 20 19 19 18 17 18 17 15 15 16 16 16 17 18 18 12 15 16 17 17 17 17 17 15 15 13 12 10 10 11 10 7 13 15 12 15 9 5 2 4 6 7
22 24 24 23 20 20 19 18 16 16 17 15 17 17 17 17 14 15 16 14 17 15 16 16 14 16 11 15 12 10 11 10 10 11 11 10 7 7 10 4 6 8 8
19 19 20 21 21 20 19 18 17 18 17 17 18 16 18 17 17 18 20 17 15 15 16 14 14 20 17 13 14 12 12 7 10 11 10 9 5 4 4 3 7 9 10
16 16 17 17 14 15 19 18 19 17 17 18 18 17 16 17 17 17 20 21 15 15 15 14 14 18 21 16 12 14 8 4 8 10 10 9 8 4 2 5 8 11 10
16 16 16 17 16 16 16 15 13 14 16 17 17 17 16 16 16 19 20 21 22 13 13 12 10 14 14 11 13 4 8 9 10 10 10 9 6 2 4 6 10 10 8
17 18 16 16 16 16 13 12 13 13 14 15 16 16 16 16 16 15 16 13 15 15 12 10 8 10 10 8 8 10 10 10 10 9 8 7 5 2 6 7 4 4 6
17 16 16 14 16 15 16 14 14 15 14 13 15 15 16 16 16 15 14 16 15 15 15 13 13 13 12 12 13 13 10 10 7 8 7 7 5 5 5 4 4 7 7
16 14 13 12 12 13 13 13 22 22 18 20 17 14 12 15 9 10 10 7 17 15 15 15 14 14 13 14 15 13 10 9 8 8 6 6 6 6 6 6 6 8 8
16 15 12 14 12 12 14 14 14 17 31 26 23 23 18 13 4 9 10 15 14 15 15 15 14 14 14 15 14 13 10 8 7 7 6 6 6 8 7 8 9 10 6
17 23 14 13 13 13 13 13 12 13 13 14 27 23 24 22 15 9 11 13 11 13 16 16 15 14 15 15 13 12 10 7 5 7 7 8 8 7 10 9 10 10 6
14 13 12 12 12 13 12 12 12 14 11 12 12 19 23 19 18 12 10 12 13 16 16 15 15 14 15 13 11 10 9 9 7 6 7 8 8 10 10 8 7 5 7
14 21 19 12 11 11 11 12 12 12 12 12 9 13 12 12 9 10 9 11 10 13 14 15 15 14 13 12 11 9 8 6 7 7 8 7 9 11 10 9 8 8 7
10 11 13 9 11 10 11 12 12 11 10 10 12 12 15 15 14 15 12 13 11 14 11 14 13 12 11 9 9 9 8 8 10 10 8 7 10 9 8 9 8 8 8
9 9 9 8 0 4 4 5 10 10 9 9 9 11 17 12 13 13 14 13 12 12 7 5 8 10 10 11 10 9 8 8 8 8 6 9 9 9 8 9 9 8 8
8 8 6 6 5 5 6 8 9 9 9 9 10 11 12 10 12 13 13 10 8 5 6 9 12 10 8 8 9 9 10 9 9 8 8 9 10 10 9 9 8 8 7
6 8 8 9 6 6 7 8 8 9 10 10 11 12 9 12 13 14 12 11 12 11 9 9 8 10 8 9 8 9 9 11 11 14 14 13 11 8 8 9 7 12 11
8 8 9 9 9 9 7 8 8 9 10 12 12 12 12 10 12 12 11 10 9 8 9 9 8 11 13 14 12 14 11 11 14 11 10 11 11 13 12 10 11 11 13
10 10 9 8 9 9 9 10 10 10 10 8 7 7 9 9 9 9 9 8 5 6 9 9 11 13 16 14 14 12 10 9 11 9 9 12 13 12 12 14 16 10 13
Wind_Direction
327 305 273 263 247 249 233 219 214 187 180 169 181 220 217 214 219 225 239 246 226 236 240 242 228 234 254 245 220 232 240 242 247 257 258 261 265 251 256 262 269 273 270
348 333 310 243 229 209 222 206 180 170 181 187 185 200 208 209 214 221 225 231 232 235 235 238 239 235 226 244 253 250 257 241 250 255 267 274 256 270 261 268 273 267 263
333 344 355 320 280 246 204 192 190 184 205 202 198 204 201 207 211 215 224 225 230 231 234 230 234 236 243 252 250 255 242 238 233 242 264 255 260 262 258 249 262 267 260
320 318 315 343 337 302 280 224 186 205 215 223 220 215 209 205 207 211 213 221 225 225 225 232 230 230 235 239 243 251 260 271 273 266 261 267 259 248 242 244 252 220 266
305 306 311 314 282 258 286 261 205 217 225 240 251 228 227 216 206 207 209 206 208 220 210 219 213 232 338 294 278 273 290 273 269 264 266 269 251 221 244 221 237 224 230
294 290 287 286 281 273 256 266 293 283 263 210 232 256 236 221 208 192 206 205 205 207 213 214 224 182 220 229 235 248 271 272 271 283 275 271 265 259 252 233 206 212 241
283 282 281 281 276 275 271 267 251 244 253 249 254 258 247 231 202 193 200 202 205 210 213 219 221 221 207 246 212 215 222 223 235 261 273 273 287 277 258 245 213 220 232
281 272 274 273 268 267 266 257 254 244 233 231 233 238 241 241 201 198 197 211 208 207 212 213 219 233 224 227 250 271 275 274 257 250 257 272 285 286 243 268 238 234 251
279 268 266 265 264 262 258 252 243 240 238 233 229 231 231 236 206 194 193 218 222 217 215 218 216 226 232 183 232 259 276 283 268 228 245 269 277 265 255 289 246 238 234
266 266 265 263 259 257 257 254 251 245 241 239 237 234 232 232 211 191 195 225 224 223 217 219 206 230 213 173 219 246 267 278 296 303 296 273 248 233 210 195 261 246 244
266 271 276 265 254 251 252 248 246 245 246 241 242 238 234 227 225 185 192 220 227 216 225 209 220 202 227 191 205 237 250 286 292 288 294 287 257 218 197 217 237 255 253
268 259 261 262 261 254 246 244 240 239 242 239 238 238 230 229 218 191 192 210 222 237 218 223 213 185 208 209 201 239 213 229 265 278 282 279 256 219 209 249 244 245 255
265 261 258 256 252 251 245 246 244 240 238 236 232 232 229 227 217 197 194 198 216 226 239 223 211 178 186 196 220 192 169 235 254 270 272 267 253 114 254 260 243 241 215
269 263 258 253 249 244 243 240 231 228 226 232 239 235 235 229 227 208 201 203 214 215 237 235 225 222 204 228 218 198 225 245 253 257 257 258 251 150 220 198 220 182 185
264 258 253 249 245 242 238 237 235 235 234 231 220 230 233 233 231 224 207 201 204 204 201 222 218 222 224 224 232 239 241 248 241 246 252 229 192 178 187 210 185 196 206
260 259 256 250 244 240 240 239 232 236 223 224 236 235 234 261 262 223 226 208 177 170 203 212 220 222 221 232 237 237 230 222 240 246 226 192 189 177 182 191 184 203 201
263 260 255 248 246 242 238 231 233 223 223 224 220 223 228 248 269 206 204 191 175 168 214 216 226 218 220 230 237 240 227 226 227 233 198 188 184 188 177 181 186 201 179
268 264 260 258 251 247 244 240 228 234 220 216 223 221 221 228 235 215 210 187 205 202 221 227 220 218 215 228 229 227 233 237 205 205 197 186 183 174 192 193 185 180 182
276 268 264 261 255 249 244 237 227 229 224 214 204 201 211 209 210 197 204 217 210 204 216 216 220 208 216 223 220 223 221 226 204 198 188 178 187 197 190 180 169 175 185
268 263 257 261 262 249 238 228 220 218 216 218 210 192 185 180 184 180 193 211 191 216 201 218 209 212 214 213 210 216 226 209 200 188 189 186 207 194 176 165 155 164 184
273 274 260 256 253 251 241 221 203 196 193 195 193 178 165 174 181 191 200 199 200 210 207 214 210 209 210 208 210 217 214 194 192 185 187 191 193 171 162 148 168 172 148
271 269 275 267 331 10 13 36 130 162 170 172 155 150 156 179 175 185 192 198 200 212 207 213 225 211 197 206 204 212 186 175 176 174 178 195 148 146 148 151 148 156 143
275 257 227 79 72 51 66 78 93 104 115 125 135 145 167 159 159 171 180 185 190 187 197 200 213 206 205 210 210 182 166 170 172 160 189 159 149 155 158 147 148 147 160
17 42 41 76 89 72 69 82 92 103 120 127 132 148 150 138 148 168 177 176 191 198 186 188 206 216 203 191 170 182 186 170 171 177 166 157 153 155 130 138 114 101 98
39 44 45 54 61 81 95 85 92 108 121 134 138 143 141 151 155 158 173 177 170 179 193 209 215 219 175 154 170 184 176 169 159 144 159 147 138 134 119 106 111 106 109
41 48 48 49 55 55 66 69 73 74 74 73 74 104 127 137 135 145 154 167 181 211 220 206 165 144 149 160 177 130 114 115 133 148 126 119 121 123 115 116 112 111 116